Location: Cisewo
(53.3833°N, 14.9000°E)
Time: 12:10:55
(UTC+00:00)

Cosmos 1356 - Pass Details

Date: 18 April 2021
Orbit: 438 x 442 km, 81.1° (Epoch: 14 May)

Event Time Altitude Azimuth Distance (km) Brightness Sun altitude
Rises 19:23:33 0° 346° (NNW) 2,453 8.0 -10.9°
Reaches altitude 10° 19:25:37 10° 346° (NNW) 1,577 7.0 -11.1°
Maximum altitude 19:29:04 87° 256° (WSW) 451 3.4 -11.6°
Enters shadow 19:32:07 13° 169° (S) 1,410 5.5 -11.9°
